Torna al catalogo

DELTA 1 DEB

AttivoPO
NORAD 8542·DEBRIS·🇺🇸 United States

Lanciato Jul 23, 1972 da Vandenberg Space Force Base

Loading…

Prossimi Passaggi (prossime 24 ore)

TLE

AggiornatoSource: Space-Track

Epoca: Sep 14, 2026, 02:37 UTC

1 08542U 72058GR  26257.10964833  .00000173  00000-0  11206-3 0  9991
2 08542  97.9419 123.6223 0349572 252.1816 104.0925 13.86681602718631

Traccia DELTA 1 DEB in tempo reale con AllMySat

Download on the App Store